Regional Weather Roundup
Issued by NWS Wakefield, VA

Home | Current Version | Previous Version | Graphics & Text | Print | Product List | Glossary On
Versions: 1 2 3 4 5 6 7 8 9 10 11 12 13 14 15 16 17 18 19 20 21 22 23 24 25 26 27 28 29 30 31 32 33 34 35 36 37 38 39 40 41 42 43 44 45 46 47 48 49 50
776
ASUS41 KAKQ 240315
RWRAKQ

REGIONAL WEATHER ROUNDUP
NATIONAL WEATHER SERVICE WAKEFIELD VA
1100 PM EDT TUE MAY 23 2017

Note: "fair" indicates few or no clouds below 12,000 feet with no
significant weather and/or obstructions to visibility. * = Denotes
station may not report precipitation (e.g., rain,snow,etc.),
thunder or fog.

VAZ042-051-052>054-056-240400-
NORTHERN VIRGINIA

CITY           SKY/WX    TMP DP  RH WIND       PRES   REMARKS
WASH NATIONAL  CLOUDY    61  57  87 N5        29.77F
DULLES         LGT RAIN  59  56  89 NE6       29.76F
FORT BELVOIR   CLOUDY    58  55  89 CALM      29.76F
QUANTICO       LGT RAIN  61  55  81 NE14      29.75F
FREDERICKSBRG* DRIZZLE   59  59 100 N3        29.75F
STAFFORD*      DRIZZLE   58  58 100 N3        29.80F
WARRENTON      DRIZZLE   60  57  88 NE3       29.76F
CULPEPER*      RAIN      60  60  99 CALM      29.77S
MANASSAS*      CLOUDY    58  56  93 N3        29.77F
LEESBURG*      CLOUDY    59  59 100 NE6       29.78F FOG
WINCHESTER     RAIN      55  54  94 N3        29.78F
FRONT ROYAL*   CLOUDY    55  55 100 N3        29.78S
LURAY*         RAIN      57  57 100 N7        29.77S
$$

VAZ048-049-060>072-079>083-240400-
CENTRAL AND SOUTH CENTRAL VIRGINIA

CITY           SKY/WX    TMP DP  RH WIND       PRES   REMARKS
RICHMOND       CLOUDY    60  59  96 N9        29.72R
CHESTERFIELD*  NOT AVBL
PETERSBURG*    HVY RAIN  60  59  96 NE10      29.72S
HANOVER        CLOUDY    59  56  89 VRB3      29.74R
TAPPAHANNOCK*  DRIZZLE   60  60 100 NW6       29.73F
QUINTON*       CLOUDY    60  60 100 N3        29.72R
CHARLOTTSVILLE LGT RAIN  61  59  93 NE8       29.74F FOG
GORDONSVILLE*  CLOUDY    60  60 100 NE5       29.74F FOG
ORANGE*        HVY RAIN  59  57  94 NE5       29.76S
LOUISA*        RAIN      63  63 100 NE6       29.73S
BUMPASS*       CLOUDY    59  59 100 W6        29.74F
FARMVILLE*     LGT RAIN  63  60  90 NE5       29.70F
CREWE*         CLOUDY    61  57  87 CALM      29.71S
FORT PICKETT*  CLOUDY   N/A N/A N/A E5        29.72S
CHASE CITY*    CLOUDY    61  60  94 CALM      29.70F
CLARKSVILLE*   CLOUDY    61  61 100 E3        29.69F
SOUTH HILL*    CLOUDY    61  61 100 CALM      29.76S
LAWRENCEVILLE* CLOUDY    61  60  97 NE3       29.70S
EMPORIA*       DRIZZLE   61  61 100 CALM      29.71F
$$

VAZ088>098-240400-
SOUTHEAST VIRGINIA

CITY           SKY/WX    TMP DP  RH WIND       PRES   REMARKS
NORFOLK        RAIN      60  60 100 NE21G26   29.66F FOG
VIRGINIA BEACH CLOUDY    59  58  96 NE14G21   29.64F FOG
NORFOLK NAVAL  RAIN      63  60  90 NE16      29.68F FOG
WEST POINT*    CLOUDY    61  60  97 NE6       29.71F
SALUDA*        CLOUDY    61  61 100 NE8       29.70F
NEWPORT NEWS   LGT RAIN  62  61  96 NE9       29.68F FOG
LANGLEY AFB    RAIN      61  61 100 NE14      29.67F
FORT EUSTIS    LGT RAIN  62  60  94 E6        29.66F FOG
WILLIAMSBURG*  CLOUDY    63  63 100 CALM      29.69F
HR EXEC AP*    CLOUDY    64  59  82 CALM      29.67R
FRANKLIN*      CLOUDY    61  60  96 NE3       29.69F
US460-WAKEFLD  CLOUDY    62  61  96 VRB5      29.69S
$$

VAZ020-022-025-037-045-240400-
WEST CENTRAL AND SOUTHWEST VIRGINIA

CITY           SKY/WX    TMP DP  RH WIND       PRES   REMARKS
STAUNTON*      RAIN      57  56  98 N7        29.78S
WAYNESBORO*    CLOUDY    56  56 100 N7        29.76S
HOT SPRINGS VA RAIN      48  48 100 E8        29.81S VSB<1/4
LYNCHBURG      HVY RAIN  59  58  96 N5        29.74S FOG
DANVILLE       LGT RAIN  62  62 100 NE5       29.71F FOG
SOUTH BOSTON*  CLOUDY    62  60  95 CALM      29.70F
MARTINSVILLE   DRIZZLE   58  57  97 NW6       29.74F
ROANOKE        RAIN      58  58 100 NE8       29.77R FOG
BLACKSBURG     DRIZZLE   57  55  94 E6        29.79S
DUBLIN*        RAIN      57  55  91 E3        29.77R
MARION*        DRIZZLE   57  54  90 E7        29.77S
HILLSVILLE*    CLOUDY    55  51  86 CALM      29.74S
RICHLANDS*     CLOUDY    56  56 100 SE6       29.72S
WISE*          RAIN      61  61 100 S5        29.70F
ABINGDON*      DRIZZLE   61  61 100 E6        29.70F
$$

MDZ021>025-VAZ099-100-240400-
SOUTHERN MARYLAND AND THE DELMARVA PENINSULA

CITY           SKY/WX    TMP DP  RH WIND       PRES   REMARKS
PATUXENT RIVER LGT RAIN  58  58 100 E13       29.71F
BAY BRIDGE APT CLOUDY    61  52  72 E9        29.75F
LEONARDTOWN    CLOUDY    55  54  94 CALM      29.74F
DOVER          CLOUDY    60  59  97 NE10      29.76F
GEORGETOWN     LGT RAIN  57  55  93 NE8       29.77F
EASTON         RAIN      59  54  83 E7        29.79F
CAMBRIDGE      CLOUDY    57  55  94 NE7       29.75F
SALISBURY      LGT RAIN  56  56 100 NE9       29.73F
OCEAN CITY     LGT RAIN  57  55  93 NE13G18   29.75F
WALLOPS ISLAND RAIN      59  59 100 NE16      29.72F FOG
ACCOMACK*      RAIN      59  42  52 NE12      29.70F
$$

NCZ012>017-030>032-240400-
NORTH CENTRAL AND EASTERN NORTH CAROLINA

CITY           SKY/WX    TMP DP  RH WIND       PRES   REMARKS
ROANOKE RAPIDS CLOUDY    61  61 100 N3        29.68F
RALEIGH        CLOUDY    67  66  97 CALM      29.68F
ELIZABETH CITY CLOUDY    67  67 100 CALM      29.66S
AHOSKIE*         N/A     62  61  97 NE3       29.69S
EDENTON*       CLOUDY    73  69  88 SW10      29.67S
CURRITUCK*     CLOUDY   N/A N/A N/A N6        29.67F
KILL DEVIL HLS CLOUDY    70  70 100 SW9       29.65F
MANTEO         CLOUDY    71  68  92 SW16      29.67S
CAPE HATTERAS  CLOUDY    74  70  87 SW14G23   29.70F
TARBORO*       NOT AVBL
GOLDSBORO      MOCLDY    69  69 100 SW6       29.67S
WASHINGTON     CLOUDY    69  67  96 SW7       29.67F
GREENVILLE     CLOUDY    70  70 100 SW7       29.71R
NEW BERN       LGT RAIN  69  69 100 S8        29.70S
WILMINGTON     CLOUDY    69  68  96 S7        29.70F
$$

VAZ048-240400-
ELSEWHERE

CITY           SKY/WX    TMP DP  RH WIND       PRES   REMARKS
HARRISBURG PA  CLOUDY    62  53  72 CALM      29.79F
BALTIMORE      CLOUDY    62  59  90 E5        29.76F
ANNAPOLIS      CLOUDY    63  55  75 NE3       29.76F
ANDREWS AFB    CLOUDY    57  55  92 N3        29.75F
PHILADELPHIA   CLOUDY    62  50  64 E7        29.79F
GREENSBORO     CLOUDY    61  61 100 NE6       29.70S FOG
ROCKY MOUNT    LGT RAIN  65  65 100 N8        29.68F
$$

VAZ100-240400-
MARINE

STATION/POSITION TIME  TEMP    WIND        PRES    WAVE   SWELL
                       AIR SEA DIR/SP/G            HT/PER HT/PER
                 (UTC) (F)     (DEG/KT/KT) (MB)    (FT/S) (FT/S)
CAPE MAY NJ      0248   57 61   60/  7/ 12 1007.4F
LEWES DE         0242   58 63   80/ 16/ 19 1007.5F
15NM E FENWICK I 0250   56 56   40/ 16/ 17 1007.4F   3/ 6   2/ 9
WACHAPREAGUE VA  0248   59 65   40/ 18/ 23 1005.3F
THOMAS POINT MD  0300   61 65   60/  9/ 10   N/A
GOOSES REEF MD   0250   61      60/ 14/ 16 1007.5F
COVE POINT MD    0248   58      80/ 15/ 19 1007.0F
SOLOMONS ISLAND  0248   59 67   50/  8/ 11   N/A
BISHOPS HEAD MD  0248   58 66   50/ 12/ 14 1006.8F
PINEY POINT MD   0242           70/  9/ 11   N/A
POTOMAC MD       0250   61      60/ 16/ 19 1004.8F
CAMBRIDGE MD     0242   59 68                N/A
LEWISETTA VA     0248   62 68   60/ 11/ 16 1005.5F
RAPPAHANNOCK LGT 0242           50/ 14/ 15 1006.2F
STINGRAY PT      0250   62      80/ 17/ 19 1006.5F
YORK RVR RNG VA  0248   63      50/ 20/ 23 1004.6F
YORKTOWN VA      0248   63 69   20/ 11/ 13 1005.1F
JAMESTOWN VA     0250   62     100/  6/ 12   N/A
DOMINION TERM VA 0248   62      40/  9/ 15 1004.9F
KIPTOPEKE VA     0242      66   70/ 12/ 19   N/A
CHES BAY BRIDGE  0248   61 63   60/ 26/ 30 1003.5F
CAPE HENRY VA    0248   60      40/ 26/ 29   N/A
WILLOUBY STN VA  0248   62      50/ 19/ 22 1004.5F
S CRANEY ISL VA  0248   63      60/ 16/ 20 1004.3F
CAPE HENRY BUOY  0242      62                N/A     4/ 4
1ST LANDING BUOY 0250   62                 1004.2F
CAPE CHARLES BUO 0251      62                N/A     4/ 4
64NM E OF VA BCH 0250   68 66  210/ 14/ 16 1004.6F   4/ 7   3/ 7
DUCK PIER NC     0248   71 62  210/ 14/ 18 1003.8F
44100 DUCK FRF   0205      65                N/A     4/ 6   2/11
44056 DUCK FRF   0230      65                N/A     3/ 7   2/13
OREGON INLET NC  0242   72 68  210/ 19/ 23 1004.6F
HATTERAS NC      0248   73 74  210/ 14/ 19 1005.5F
DIAMOND SHLS NC  0250   76 75  210/ 16/ 17 1006.3S   6/ 5
CAPE LOOKOUT NC  0300   73     210/ 13/ 18 1005.8F
$$




USA.gov is the U.S. government's official web portal to all federal, state and local government web resources and services.